"Pseudo-MPEC" for P10HMT1

Created 2018 Jun 18 9:18:19 UT using Find_Orb

Click here for an explanation of pseudo-MPECs

 
 Astrometry: 
     P10HMT1  C2018 06 13S5AstrometryS!a`([s#88LNe;ujsKG2Nc)TRxp-++I^a1DilqF_F51
     P10HMT1  C2018 06 13/r3Ohbsa4@tb]Wp6UfC`LFD3WB$:Hc#uPR=9K$'FRi)0_se%pLQ=F51
     P10HMT1  C2018 06 13JdNG@R;CoK[mP9tvl=ZV-g[Xm3urQ#?rVZ;%R3%WHr.aF^Scr/?QF51
     P10HMT1 |C2018 06 15U^Dh3?j5ko`s_YA2Aredacted;]X6BR;XQppO8]F2N[#N+d.-7n@807
     P10HMT1 |C2018 06 153bp^B`Zt`P-7FWA_;gKCHNKSlZ:^(5q.wgFsM[m41%12FJMguJ6$807
     P10HMT1 |C2018 06 15uCJ/8.7M%y$lwt[jbFEAWWB\^/WbE57Csee`G[n8.NlftlcnM-0M807
     P10HMT1 ^C2018 06 15.57355120 19 18.673-18 35 58.83         21.72GVNEOCP568
     P10HMT1 ^C2018 06 15.57449520 19 18.742-18 35 59.16         21.67GVNEOCP568
     P10HMT1 ^C2018 06 15.57544120 19 18.815-18 35 59.54         21.45GVNEOCP568
     P10HMT1 ^C2018 06 15.57638520 19 18.880-18 35 59.93         21.50GVNEOCP568
     P10HMT1 ^C2018 06 15.57733620 19 18.950-18 36 00.29         21.62GVNEOCP568
     P10HMT1 ^C2018 06 15.57828220 19 19.021-18 36 00.60         21.51GVNEOCP568
     P10HMT1 |C2018 06 17,R*=t@U)x=)gUMVavHIJ:5x,RG3_W`lcE/]eeA=\$+k^2!EbJHfd807
     P10HMT1 |C2018 06 177eKi28Niyt-x^D=#e5_Ct+',,IV(5u?.287VkeciI-aMv@JJK,0W807
     P10HMT1 |C2018 06 17fYhoo=ho=Q\UB8G-Uj1+7C[Wn+(T:@u(ijEX:/vq+hr8C=INEOCP807

Station data:
(568) Mauna Kea  (N19.826116 W155.472200)  US/Hawaii.
(807) Cerro Tololo Observatory, La Serena  (S30.169136 W70.805900)  Chile.
   1.5-m Ritchey-Chrétien.
(F51) Pan-STARRS 1, Haleakala  (N20.707235 W156.255910)  US/Hawaii.
   Observers N. Primak, A. Schultz, S. Watters, J. Thiel, T. Goggia. Measurer
   PS1 Science Consortium. 1.8-m Ritchey-Chrétien + CCD.

Orbital elements:  P10HMT1
   Perihelion 2018 Sep 7.118602 +/- 0.449 TT =  2:50:47 (JD 2458368.618602)
Epoch 2018 Jun 17.0 TT = JDT 2458286.5   Earth MOID: 0.2994   Ma: 0.0078
M 341.22410 +/- 0.6                 (J2000 ecliptic)          AutoNEOCP
n   0.22864360 +/- 0.00639          Peri.  238.09594 +/- 0.55
a   2.64868317 +/- 0.0494           Node   101.59521 +/- 0.07
e   0.5159875 +/- 0.00702           Incl.    7.72886 +/- 0.055
P   4.31                   H 20.9   G  0.15   U  9.3  
q 1.28199574 +/- 0.00618    Q 4.01537060 +/- 0.0963
From 15 observations 2018 June 13-17; mean residual 0".08
Residuals in arcseconds: 
180613 F51  .06+  .03-    180615 807  .15+  .30-    180615 568  .04-  .03+    
180613 F51  .05+  .04+    180615 568  .04-  .00     180615 568  .01-  .09+    
180613 F51  .13-  .03-    180615 568  .04-  .04+    180617 807  .05+  .07-    
180615 807  .02-  .10+    180615 568  .02+  .04+    180617 807  .10-  .07+    
180615 807  .00   .09+    180615 568  .04-  .02+    180617 807  .04+  .04-    

Ephemerides (geocentric):
Date (UTC) HH   RA              Dec         delta   r     elong  mag " sig PA
---- -- -- --  -------------   -----------  ------ ------ -----  --- ---- ---
2018 06 18 09  20 22 58.488   -18 55 47.20  .59970 1.5392 143.3 21.9  .47  15
2018 06 18 10  20 23 01.733   -18 56 06.28  .59932 1.5389 143.3 21.9  .49  15
2018 06 18 11  20 23 04.977   -18 56 25.40  .59894 1.5387 143.4 21.9  .51  15
2018 06 18 12  20 23 08.220   -18 56 44.56  .59856 1.5385 143.4 21.9  .52  15
2018 06 18 13  20 23 11.463   -18 57 03.76  .59818 1.5382 143.4 21.9  .54  16
2018 06 18 14  20 23 14.705   -18 57 22.99  .59780 1.5380 143.4 21.9  .56  16
2018 06 18 15  20 23 17.947   -18 57 42.26  .59743 1.5378 143.5 21.9  .58  16
2018 06 18 16  20 23 21.188   -18 58 01.58  .59705 1.5376 143.5 21.9  .59  16
2018 06 18 17  20 23 24.429   -18 58 20.93  .59667 1.5373 143.5 21.9  .61  16
2018 06 18 18  20 23 27.668   -18 58 40.31  .59629 1.5371 143.6 21.9  .63  16
2018 06 18 19  20 23 30.907   -18 58 59.74  .59591 1.5369 143.6 21.9  .65  16
2018 06 18 20  20 23 34.146   -18 59 19.21  .59553 1.5366 143.6 21.9  .67  16
2018 06 18 21  20 23 37.384   -18 59 38.71  .59516 1.5364 143.6 21.8  .69  16
2018 06 18 22  20 23 40.621   -18 59 58.26  .59478 1.5362 143.7 21.8  .71  16
2018 06 18 23  20 23 43.858   -19 00 17.84  .59440 1.5360 143.7 21.8  .73  16
2018 06 19 00  20 23 47.094   -19 00 37.46  .59402 1.5357 143.7 21.8  .75  16
2018 06 19 01  20 23 50.330   -19 00 57.12  .59365 1.5355 143.8 21.8  .77  16
2018 06 19 02  20 23 53.564   -19 01 16.82  .59327 1.5353 143.8 21.8  .79  16
2018 06 19 03  20 23 56.799   -19 01 36.55  .59289 1.5351 143.8 21.8  .81  16
2018 06 19 04  20 24 00.032   -19 01 56.33  .59252 1.5348 143.8 21.8  .83  16
2018 06 19 05  20 24 03.266   -19 02 16.14  .59214 1.5346 143.9 21.8  .85  16
2018 06 19 06  20 24 06.498   -19 02 36.00  .59177 1.5344 143.9 21.8  .88  16
2018 06 19 07  20 24 09.730   -19 02 55.89  .59139 1.5341 143.9 21.8  .90  16
2018 06 19 08  20 24 12.961   -19 03 15.82  .59101 1.5339 144.0 21.8  .92  16
2018 06 19 09  20 24 16.192   -19 03 35.79  .59064 1.5337 144.0 21.8  .94  16
2018 06 19 10  20 24 19.422   -19 03 55.81  .59027 1.5335 144.0 21.8  .97  16
2018 06 19 11  20 24 22.651   -19 04 15.85  .58989 1.5332 144.0 21.8  .99  16
2018 06 19 12  20 24 25.880   -19 04 35.94  .58952 1.5330 144.1 21.8  1.0  16
2018 06 19 13  20 24 29.109   -19 04 56.07  .58914 1.5328 144.1 21.8  1.0  16
2018 06 19 14  20 24 32.336   -19 05 16.24  .58877 1.5326 144.1 21.8  1.1  16
2018 06 19 15  20 24 35.563   -19 05 36.45  .58840 1.5323 144.2 21.8  1.1  16
2018 06 19 16  20 24 38.790   -19 05 56.69  .58802 1.5321 144.2 21.8  1.1  16
2018 06 19 17  20 24 42.016   -19 06 16.98  .58765 1.5319 144.2 21.8  1.1  16
2018 06 19 18  20 24 45.241   -19 06 37.30  .58728 1.5316 144.2 21.8  1.2  16
2018 06 19 19  20 24 48.466   -19 06 57.67  .58690 1.5314 144.3 21.8  1.2  16
2018 06 19 20  20 24 51.690   -19 07 18.07  .58653 1.5312 144.3 21.8  1.2  16
2018 06 19 21  20 24 54.914   -19 07 38.51  .58616 1.5310 144.3 21.8  1.2  16
2018 06 19 22  20 24 58.137   -19 07 59.00  .58579 1.5307 144.4 21.8  1.3  16
2018 06 19 23  20 25 01.359   -19 08 19.52  .58542 1.5305 144.4 21.8  1.3  16
2018 06 20 00  20 25 04.581   -19 08 40.08  .58504 1.5303 144.4 21.8  1.3  16
2018 06 20 01  20 25 07.802   -19 09 00.68  .58467 1.5301 144.4 21.8  1.3  16
2018 06 20 02  20 25 11.023   -19 09 21.33  .58430 1.5298 144.5 21.8  1.4  16
2018 06 20 03  20 25 14.243   -19 09 42.01  .58393 1.5296 144.5 21.8  1.4  16
2018 06 20 04  20 25 17.463   -19 10 02.73  .58356 1.5294 144.5 21.8  1.4  16
2018 06 20 05  20 25 20.681   -19 10 23.49  .58319 1.5292 144.6 21.8  1.4  16
2018 06 20 06  20 25 23.900   -19 10 44.29  .58282 1.5289 144.6 21.8  1.5  16
2018 06 20 07  20 25 27.118   -19 11 05.13  .58245 1.5287 144.6 21.8  1.5  16
2018 06 20 08  20 25 30.335   -19 11 26.01  .58208 1.5285 144.6 21.8  1.5  16